SB KEPS @ AMSAT $ORB11307.N 2Line Orbital Elements 11307.AMSAT
HR AMSAT ORBITAL ELEMENTS FOR AMATEUR SATELLITES IN NASA FORMAT FROM WA5QGD FORT WORTH,TX November 3, 2011 Send Subscribe/unsubscribe to KEPS at http://www.amsat.org/mailman/listinfo/keps BID: ORB11307.N
DECODE 2-LINE ELSETS WITH THE FOLLOWING KEY: 1 AAAAAU 00 0 0 BBBBB.BBBBBBBB .CCCCCCCC 00000-0 00000-0 0 DDDZ 2 AAAAA EEE.EEEE FFF.FFFF GGGGGGG HHH.HHHH III.IIII JJ.JJJJJJJJKKKKKZ KEY: A-CATALOGNUM B-EPOCHTIME C-DECAY D-ELSETNUM E-INCLINATION F-RAAN G-ECCENTRICITY H-ARGPERIGEE I-MNANOM J-MNMOTION K-ORBITNUM Z-CHECKSUM
TO ALL RADIO AMATEURS BT
AO-07 1 07530U 74089B 11306.85881168 -.00000027 00000-0 10000-3 0 2200 2 07530 101.3972 307.9454 0012060 008.5310 351.5961 12.53585167691568 FO-29 1 24278U 96046B 11306.93499383 .00000089 00000-0 12939-3 0 07135 2 24278 098.5680 072.5085 0349696 257.7288 098.4493 13.52967931751224 SO-33 1 25509U 98061B 11306.68146097 .00000732 00000-0 13532-3 0 00919 2 25509 031.4322 180.9573 0353001 012.7761 348.1593 14.28490110680093 RS-22 1 27939U 03042A 11306.79669286 .00000975 00000-0 19567-3 0 07746 2 27939 097.8271 154.0556 0012378 265.4622 094.5168 14.63717516432610 VO-52 1 28650U 05017B 11306.82846997 .00001979 00000-0 25208-3 0 09411 2 28650 097.6258 343.6514 0028038 067.9711 292.4488 14.82328362351283 SO-67 1 35870U 09049F 11307.21869569 .00005632 00000-0 25240-3 0 3708 2 35870 097.2640 345.8669 0000633 230.3544 202.2130 15.21617716118071 HO-68 1 36122U 09072B 11307.18093594 -.00000044 00000-0 00000 0 0 8877 2 36122 100.3985 005.7806 0007162 267.5155 092.5142 13.16289666 90522 UO-11 1 14781U 84021B 11306.80150961 .00001037 00000-0 14353-3 0 07018 2 14781 097.9883 002.9482 0010043 053.9116 306.3024 14.80118248486299 AO-16 1 20439U 90005D 11306.86488854 .00000233 00000-0 10260-3 0 3167 2 20439 098.4009 251.9559 0011665 109.7589 250.4851 14.31962669137467 LO-19 1 20442U 90005G 11306.85288090 .00000183 00000-0 83301-4 0 02441 2 20442 098.3652 255.7721 0012738 103.3346 256.9260 14.32185515137643 AO-27 1 22825U 93061C 11306.54283127 .00000204 00000-0 97137-4 0 09538 2 22825 098.5474 248.2369 0007780 224.3703 135.6848 14.29383597943951 IO-26 1 22826U 93061D 11306.86672241 .00000226 00000-0 10507-3 0 07024 2 22826 098.5405 248.9853 0008165 219.6377 140.4208 14.29649944944128 GO-32 1 25397U 98043D 11306.83179404 .00000063 00000-0 45725-4 0 06204 2 25397 098.3401 292.0676 0000767 182.2955 177.8219 14.23230205691684 NO-44 1 26931U 01043C 11306.62531161 .00000398 00000-0 18711-3 0 08872 2 26931 067.0540 346.8023 0004841 263.2466 096.8092 14.29704826526715 SO-50 1 27607U 02058C 11306.88130189 .00001667 00000-0 27304-3 0 06060 2 27607 064.5597 266.1704 0082578 292.5465 066.6967 14.71936034476509 CO-55 1 27844U 03031E 11306.55342269 .00000375 00000-0 19333-3 0 02359 2 27844 098.7068 313.2554 0009738 155.5214 204.6427 14.20878324432562 CO-57 1 27848U 03031J 11306.51859222 .00000327 00000-0 17193-3 0 01810 2 27848 098.7138 312.4599 0009710 160.2040 199.9509 14.20649656432509 AO-51 1 28375U 04025K 11306.93643674 .00000440 00000-0 14452-3 0 01123 2 28375 098.1156 278.2168 0084614 010.0516 350.2384 14.40814638386042 CP3 1 31129U 07012N 11306.53997381 .00001070 00000-0 25397-3 0 00103 2 31129 097.8927 322.7163 0102787 110.9706 250.2565 14.52646878240926 CO-65 1 32785U 08021C 11306.41163612 .00002198 00000-0 28112-3 0 01406 2 32785 097.8337 007.5534 0015974 085.4282 274.8772 14.82291693190016 PRISM 1 33493U 09002B 11306.91610933 .00003927 00000-0 49680-3 0 01102 2 33493 098.1431 077.7403 0018858 314.3168 045.6518 14.82303258150061 SOHLA-1 1 33496U 09002E 11306.94151702 .00000650 00000-0 11728-3 0 05692 2 33496 098.0905 055.4570 0007485 048.1576 312.0268 14.69722963148867 TISAT-1 1 36799U 10035E 11306.87116154 .00002625 00000-0 34558-3 0 03792 2 36799 098.0886 016.4145 0015217 184.8817 175.2245 14.80955581070839 STUDSAT 1 36801U 10035G 11306.92001180 .00006963 00000-0 89013-3 0 02710 2 36801 098.0924 016.4525 0013807 173.5281 186.6141 14.81643429070838 OOREOS 1 37224U 10062C 11283.12196780 .00000955 00000-0 14226-3 0 03021 2 37224 071.9656 145.3580 0018647 057.9354 302.3616 14.77183931047847 FO-69 1 37227U 0 11306.46083341 .00001152 00000-0 17193-3 0 00142 2 37227 071.9687 094.3610 0014766 028.8783 331.3193 14.76727385002470 NANOSALD 1 37361U 0 11242.25215765 .00180112 00000-0 75811-2 0 03512 2 37361 071.9735 221.4469 0025730 245.3422 114.7284 15.22200108033319 FO-70 1 37380U 0 11306.49654346 .00000785 00000-0 12042-3 0 00154 2 37380 071.9711 094.5527 0016849 016.1778 343.9927 14.76487598002377 NOAA-10 1 16969U 86073A 11306.92514946 .00000026 00000-0 28129-4 0 06975 2 16969 098.6082 334.7448 0012164 175.8266 184.3018 14.27491370307449 NOAA-11 1 19531U 88089A 11306.87228774 .00000147 00000-0 98212-4 0 06869 2 19531 098.7475 031.6763 0011315 148.8131 211.3728 14.14933323192362 NOAA-12 1 21263U 91032A 11306.97753397 -.00000020 00000-0 10190-4 0 02014 2 21263 098.7455 324.5324 0014413 138.6775 221.5496 14.25448983064183 MET-3/5 1 21655U 91056A 11306.62441362 .00000051 00000-0 10000-3 0 02509 2 21655 082.5559 312.9631 0013679 165.6196 194.5338 13.17030023971943 MET-2/21 1 22782U 93055A 11306.87994409 .00000086 00000-0 63679-4 0 02479 2 22782 082.5488 212.8377 0024064 071.0097 289.3663 13.83667896917739 OKEAN-4 1 23317U 94066A 11306.94163698 .00002001 00000-0 24072-3 0 07368 2 23317 082.5392 243.5511 0022964 025.8427 334.3929 14.83281799921118 NOAA-14 1 23455U 94089A 11306.95582935 .00000085 00000-0 68230-4 0 06832 2 23455 098.8451 028.1566 0008648 244.5973 115.4301 14.13844926868687 NOAA-15 1 25338U 98030A 11306.91578887 .00000339 00000-0 16348-3 0 00053 2 25338 098.6699 291.2609 0011489 052.3547 307.8681 14.24974274700484 RESURS 1 25394U 98043A 11306.92759558 .00000090 00000-0 56649-4 0 09441 2 25394 098.3061 302.3548 0001340 146.5988 213.5277 14.24249707692055 FENGYUN1 1 25730U 99025A 11306.95093655 .00002200 00000-0 12921-2 0 04722 2 25730 098.8267 265.1895 0023520 291.8652 068.0010 14.08991799642600 OKEAN-0 1 25860U 99039A 11306.93200012 .00000849 00000-0 13687-3 0 04768 2 25860 097.9036 269.7099 0000575 055.3728 304.7535 14.73911455661095 NOAA-16 1 26536U 00055A 11306.90088857 -.00000063 00000-0 -90308-5 0 04876 2 26536 099.1267 340.1721 0010694 007.3772 352.7550 14.12660782572943 NOAA-17 1 27453U 02032A 11306.84924629 .00000310 00000-0 15163-3 0 04722 2 27453 098.3645 340.0895 0012704 102.2938 257.9655 14.24337846486397 NOAA-18 1 28654U 05018A 11306.82302379 .00000085 00000-0 71685-4 0 09493 2 28654 099.0155 258.4243 0015213 074.8061 285.4796 14.11539543332489 NOAA-19 1 33591U 09005A 11306.85093271 .00000026 00000-0 38768-4 0 01414 2 33591 098.8406 244.7490 0013563 306.9239 053.0697 14.11229789140940 HUBBLE 1 20580U 90037B 11306.10856795 .00002440 00000-0 17053-3 0 8770 2 20580 028.4695 195.3338 0003420 146.9247 213.1679 15.01722135980402 ISS 1 25544U 98067A 11307.39278837 .00028613 00000-0 35472-3 0 3672 2 25544 051.6412 180.0751 0021741 016.7654 139.2415 15.59531792742642 CO-58 1 28895U 05043F 11306.62554495 .00000888 00000-0 19286-3 0 00157 2 28895 097.9423 177.5039 0018391 143.5635 216.6842 14.60260018320449 FALCON 1 30776U 07006E 11306.96415415 .00005767 00000-0 39572-3 0 02113 2 30776 035.4323 222.7922 0002721 242.8913 117.1525 15.05472957255966 MAST 1 31126U 07012K 11306.58335949 .00000715 00000-0 17008-3 0 03020 2 31126 097.8870 325.9323 0095356 099.6716 261.5263 14.53863401241194 CAPE1 1 31130U 07012P 11306.49066991 .00000891 00000-0 21358-3 0 3100 2 31130 097.8918 322.4237 0103134 111.5257 249.6989 14.52541861240717 COMPASS 1 32787U 08021E 11306.43184729 .00003121 00000-0 39072-3 0 01350 2 32787 097.8335 007.5804 0016780 085.6294 274.6859 14.82879499190040 AAUSAT2 1 32788U 08021F 11306.84938129 .00003234 00000-0 40252-3 0 01275 2 32788 097.8333 008.2600 0016551 084.8089 275.5072 14.83103280190125 DO-64 1 32789U 08021G 11306.73860289 .00005850 00000-0 70966-3 0 01412 2 32789 097.8434 009.4470 0016181 082.6999 277.6146 14.83852481190120 CO-66 1 32791U 08021J 11306.68229045 .00002969 00000-0 37540-3 0 01305 2 32791 097.8338 007.7157 0017206 084.3623 275.9574 14.82496617190020 RS-30 1 32953U 08025A 11307.39315240 .00000010 00000-0 00000 0 0 2236 2 32953 082.5000 076.1684 0019724 084.1626 276.1710 12.43016629156382 TACSAT-3 1 35001U 09028A 11307.39507707 .00069152 00000-0 92417-3 0 7489 2 35001 040.4531 043.9542 0014992 164.4926 195.6373 15.56935393138715 PHARMSAT 1 35002U 09028B 11307.38382810 .00050666 00000-0 73668-3 0 6942 2 35002 040.4693 043.2023 0016652 177.6628 182.4320 15.54734080138727 HAWKSAT1 1 35003U 09028C 11276.79285837 .02274821 58283-2 19360-2 0 8114 2 35003 040.4398 174.3672 0011414 274.3918 085.3844 16.13812532134570 CP6 1 35004U 09028D 11247.64656856 .16152067 73217-5 10011-2 0 7842 2 35004 040.4403 342.9642 0002956 038.0069 322.2231 16.41039951130139 METEOR-M 1 35865U 09049A 11307.20474098 .00000019 00000-0 28459-4 0 8648 2 35865 098.6887 000.4064 0002800 006.9218 353.1993 14.21844423110340 RS-38 1 35869U 09049E 11307.18732354 .00000092 00000-0 61313-4 0 8468 2 35869 098.6857 000.4155 0004779 359.3966 000.7210 14.22030233110359 ARISSAT1 1 37772U 98067CK 11307.40947468 .00158859 00000-0 11347-2 0 2795 2 37772 051.6351 177.1363 0004615 057.2722 109.6470 15.72739585 14260 SRMSAT 1 37839U 11058B 11306.33953534 .00000619 00000-0 19019-3 0 205 2 37839 019.9625 298.5106 0018972 233.9594 125.9041 14.11980734 3000 JUGNU 1 37841U 11058D 11306.29726232 .00000264 00000-0 00000-0 0 00197 2 37841 019.9693 299.1858 0011621 210.8240 149.1517 14.10079147002994 /EX
participants (1)
-
Ray Hoad